Regional Weather Roundup
Issued by NWS

Home | Current Version | Previous Version | Text Only | Print | Product List | Glossary On
Versions: 1 2 3 4 5 6 7 8 9 10 11 12 13 14 15 16 17 18 19 20 21 22 23 24 25 26 27 28 29 30 31 32 33 34 35 36 37 38 39 40 41 42 43 44 45 46 47 48 49 50
000
ASUS45 KBOU 260307
RWRCO

WEATHER ROUNDUP FOR COLORADO
NATIONAL WEATHER SERVICE DENVER/BOULDER CO
900 PM MDT FRI JUL 25 2014

NOTE: "FAIR" INDICATES FEW OR NO CLOUDS BELOW 12000 FEET WITH NO
SIGNIFICANT WEATHER AND/OR OBSTRUCTIONS TO VISIBILITY.

COZ001>005-013-030-031-260400-
...NORTHWEST COLORADO...

CITY           SKY/WX    TMP DP  RH WIND       PRES   REMARKS
CRAIG          MOCLDY    61  53  75 E7        30.20R
HAYDEN         MOCLDY    70  45  40 NE7       30.24R
MEEKER         PTCLDY    66  55  67 CALM      30.18R
MOUNT WERNER   NOT AVBL
STEAMBOAT SPGS MOCLDY    62  50  64 NW23G38   30.26R
WALDEN         CLOUDY    55  48  76 SE8       30.33F
$$

COZ006>008-011-260400-
...WEST CENTRAL VALLEYS...

CITY           SKY/WX    TMP DP  RH WIND       PRES   REMARKS
GRAND JUNCTION PTCLDY    73  61  65 E5        30.05R
MONTROSE       CLEAR     74  53  48 SE3       30.16R
EAGLE          PTCLDY    70  52  52 CALM      30.23S
RIFLE          PTCLDY    75  47  36 S5        30.13R
DELTA          CLEAR     80  53  38 CALM      30.10R
NUCLA          CLEAR     84  43  23 CALM      30.17S
$$

COZ017>023-064>068-260400-
...SOUTHWEST COLORADO...

CITY           SKY/WX    TMP DP  RH WIND       PRES   REMARKS
DURANGO        CLEAR     80  40  23 NW9       30.20R
CORTEZ         CLEAR     78  44  29 S5        30.14R
PAGOSA SPRINGS CLEAR     72  49  44 CALM      30.29R
TELLURIDE      CLEAR     66  46  48 CALM      30.43R
WOLF CREEK PAS NOT AVBL
$$

COZ009-010-012-014-032>034-037-058>063-260400-
...CENTRAL COLORADO...

CITY           SKY/WX    TMP DP  RH WIND       PRES   REMARKS
ASPEN          PTCLDY    64  54  69 SE9       30.33R
BUENA VISTA    PTCLDY    62  51  67 N6        30.36R
COPPER MTN     MOCLDY    54  43  66 W7        30.67R
BERTHOUD PASS  FAIR      45  32  61 W17       30.69S
COTTONWOOD PAS PTCLDY    61  50  67 W9        30.50S
GUNNISON       CLEAR     66  46  48 NW7       30.35S
KREMMLING      PTCLDY    61  50  67 CALM      30.31R
LEADVILLE      PTCLDY    51  49  92 CALM      30.51R
MONARCH PASS   PTCLDY    52  41  66 W13       30.77R
SALIDA         PTCLDY   N/A N/A N/A NW9G17    30.39R
SUNLIGHT       CLEAR     54  46  76 CALM      30.58R
WILKERSON PASS NOT AVBL
$$

COZ069>075-260400-
...SAN LUIS VALLEY/SANGRE DE CRISTO MOUNTAINS...

CITY           SKY/WX    TMP DP  RH WIND       PRES   REMARKS
ALAMOSA        PTCLDY    66  51  58 NE5       30.31R
LA VETA PASS   PTCLDY    55  45  67 NE7       30.52S
SAGUACHE       PTCLDY    66  46  48 NE6       30.34S
$$

COZ035-036-038>040-260400-
...NORTHERN COLORADO FRONT RANGE...

CITY           SKY/WX    TMP DP  RH WIND       PRES   REMARKS
DENVER INTL AP CLOUDY    74  55  51 SW17G26   30.11S
DMNS CITY PARK   N/A     71  56  58 SW8       30.11F
AURORA         LGT RAIN  67  59  75 S20       30.15F
FRONT RANGE AP NOT AVBL
ERIE MUNI ARPT MOCLDY    74  51  44 S10       30.10R
BOULDER MUN AP MOCLDY    73  52  46 SW5       30.10R
CENTENNIAL     LGT RAIN  66  60  81 E3        30.18F
BROOMFIELD     MOCLDY    72  54  53 S14       30.14F
FORT COLLINS   CLOUDY    73  54  49 S12       30.07S
LONGMONT       CLOUDY    78  48  34 S5        30.10R
$$

COZ041-046-047-076>085-087-088-260400-
...PIKES PEAK/PALMER DIVIDE AND SOUTHERN FOOTHILLS...

CITY           SKY/WX    TMP DP  RH WIND       PRES   REMARKS
COLO. SPRINGS  MOCLDY    73  51  46 NW6       30.20R
A. F. ACADEMY  CLOUDY    71  55  56 N14       30.23R
ELLICOTT       MOCLDY    72  54  53 N8        30.18R
FALCON         MOCLDY    69  50  52 NW5       30.26R
FORT CARSON    CLOUDY    73  55  53 N8        30.16R
LIMON          MOCLDY    72  53  51 W7        30.13R
MONUMENT HILL  CLOUDY    63  55  77 NW10      30.28R
TRINIDAD       MOCLDY    74  55  51 W10       30.15R
$$

COZ042>045-048>051-090-091-260400-
...NORTHEAST COLORADO...

CITY           SKY/WX    TMP DP  RH WIND       PRES   REMARKS
GREELEY ARPT   MOCLDY    75  54  46 SW7       30.06R
AKRON          MOCLDY    76  47  35 NE3       30.04R
BURLINGTON     MOCLDY    81  61  50 N3        30.00R
WRAY             N/A     81  58  45 N8        29.96R
STERLING       MOCLDY    81  59  47 CALM      29.98R
HOLYOKE        CLOUDY    79  70  73 S6        29.96S
FORT MORGAN    MOCLDY    74  53  48 W3        30.04R
$$

COZ086-089-092>099-260400-
...SOUTHEAST COLORADO...

CITY           SKY/WX    TMP DP  RH WIND       PRES   REMARKS
PUEBLO         MOCLDY    74  64  71 NW7       30.06R
LA JUNTA       CLOUDY    84  53  34 N24       29.98R
LAMAR          NOT AVBL
SPRINGFIELD      N/A     82  54  37 N23G32    29.99R
$$


USA.gov is the U.S. government's official web portal to all federal, state and local government web resources and services.